Skip Page Navigation
NASA JPL Caltech
NASA Logo - Jet Propulsion Laboratory + View the NASA Portal
+ Center for Near-Earth Object Studies
JPL Home Earth Solar System Stars & Galaxies Technology
JPL Solar System Dynamics
BODIES ORBITS EPHEMERIDES TOOLS PHYSICAL DATA DISCOVERY FAQ SITE MAP
IMPORTANT: The SSD Announcement email list is now available. Major changes are coming in the near future, including possible hostname and/or URL changes. To be notified of such changes, subscribe to this email list.

Please visit this page for more details.


JPL Small-Body Database Browser
Search: [ help ]  
523703 (2014 HX199)
Classification: TransNeptunian Object          SPK-ID: 2523703
Ephemeris | Orbit Diagram | Orbital Elements | Mission Design | Physical Parameters | Discovery Circumstances ]

[ show orbit diagram ]
Orbital Elements at Epoch 2458600.5 (2019-Apr-27.0) TDB
Reference: JPL 5 (heliocentric ecliptic J2000)
 Element Value Uncertainty (1-sigma)   Units 
e .2337369458904733 2.1242e-05  
a 39.95591146571262 0.0013305 au
q 30.61673874944681 0.00022122 au
i 14.72949425105782 3.4284e-05 deg
node 109.9185276249492 0.00026274 deg
peri 132.6302086549797 0.0039301 deg
M 356.7185885062554 0.0023687 deg
tp 2459441.368695009966
(2021-Aug-14.86869501)
0.59605 TDB
period 92250.76793344939
252.57
4.6078
0.01262
d
yr
n .003902406538877894 1.9492e-07 deg/d
Q 49.29508418197842 0.0016415 au
  Orbit Determination Parameters
   # obs. used (total)      122  
   data-arc span      2969 days (8.13 yr)  
   first obs. used      2010-04-04  
   last obs. used      2018-05-21  
   planetary ephem.      DE431  
   SB-pert. ephem.      SB431-N16  
   condition code      2  
   norm. resid. RMS      .58841  
   source      ORB  
   producer      Otto Matic  
   solution date      2018-Oct-04 12:52:36  

Additional Information
 Earth MOID = 29.622 au 
 Jupiter MOID = 25.3505 au 
 T_jup = 5.342 
[ show covariance matrix ]

Ephemeris | Orbit Diagram | Orbital Elements | Mission Design | Physical Parameters | Discovery Circumstances ]

Physical Parameter Table
Parameter Symbol Value Units Sigma Reference Notes
absolute magnitude H 7.1   n/a MPO450796  

523703 (2014 HX199)          Discovered 2010-Apr-04 by Pan-STARRS 1 at Haleakala
Reference: Last Updated: 2018-10-01
Ephemeris | Orbit Diagram | Orbital Elements | Mission Design | Physical Parameters | Discovery Circumstances ]
ABOUT SSD CREDITS/AWARDS PRIVACY/COPYRIGHT GLOSSARY LINKS
FirstGov
(server date/time)  
NASA Home Page
Site Manager:   Ryan S. Park
Webmaster  Alan B. Chamberlin